Forest City, IA

9:50 PM CDT on June 23, 2017 (GMT -0500)
Forest City Municipal

Weather History for KFXY - March, 2014

Change the Weather History Date:

Sunday, March 30, 2014

  Actual Average Record
Temperature  
Mean Temperature 50 °F -  
Max Temperature 66 °F 48 °F 69 °F (2015)
Min Temperature 33 °F 28 °F 28 °F (2015)
Degree Days  
Heating Degree Days 16    
Moisture  
Dew Point 34 °F    
Average Humidity 61    
Maximum Humidity 87    
Minimum Humidity 34    
Precipitation  
Precipitation 0.00 in - - ()
Sea Level Pressure  
Sea Level Pressure 29.88 in    
Wind  
Wind Speed - (North)    
Max Wind Speed -    
Max Gust Speed -    
Visibility 10 miles    
Events      
Averages and records for this station are not official NWS values.
T = Trace of Precipitation, MM = Missing Value Source: NWS Daily Summary

Daily Weather History Graph

Daily Weather History Graph

Search for Another Location

Airport or City:

Trip Planner

Search our weather history database for the weather conditions in past years. The results will help you decide how hot, cold, wet, or windy it might be!

Date:

Astronomy

Mar. 30, 2014 Rise Set
Actual Time 6:59 AM CDT 7:38 PM CDT
Civil Twilight 6:31 AM CDT 8:07 PM CDT
Nautical Twilight 5:57 AM CDT 8:41 PM CDT
Astronomical Twilight 5:22 AM CDT 9:16 PM CDT
Moon 6:46 AM CDT (3/30) 7:53 PM CDT (3/30)
Length of Visible Light 13h 36m
Length of Day
12h 38m
Waning Crescent, 0% of the Moon is Illuminated
Mar 30
Waning Crescent
Mar 30
New
Apr 7
First Quarter
Apr 15
Full
Apr 22
Last Quarter

Hourly Weather History & Observations

Time (CDT) Temp. Dew Point Humidity Pressure Visibility Wind Dir Wind Speed Gust Speed Precip Events Conditions
12:15 AM 33.8 °F 30.2 °F 87% 30.08 in 10.0 mi North - - N/A   Clear
12:35 AM 33.8 °F 30.2 °F 87% 30.06 in 10.0 mi North - - N/A   Clear
1:15 AM 35.6 °F 30.2 °F 81% 30.05 in 10.0 mi North - - N/A   Clear
1:35 AM 35.6 °F 30.2 °F 81% 30.05 in 10.0 mi North - - N/A   Clear
1:55 AM 35.6 °F 30.2 °F 81% 30.05 in 10.0 mi North - - N/A   Clear
2:15 AM 35.6 °F 30.2 °F 81% 30.04 in 10.0 mi North - - N/A   Clear
2:35 AM 35.6 °F 30.2 °F 81% 30.02 in 10.0 mi North - - N/A   Clear
2:55 AM 35.6 °F 30.2 °F 81% 30.01 in 10.0 mi North - - N/A   Clear
3:15 AM 35.6 °F 30.2 °F 81% 30.01 in 10.0 mi North - - N/A   Clear
3:35 AM 35.6 °F 30.2 °F 81% 30.00 in 10.0 mi North - - N/A   Clear
3:55 AM 35.6 °F 30.2 °F 81% 29.99 in 10.0 mi North - - N/A   Clear
4:15 AM 35.6 °F 30.2 °F 81% 29.98 in 10.0 mi North - - N/A   Clear
4:35 AM 35.6 °F 30.2 °F 81% 29.98 in 10.0 mi North - - N/A   Clear
4:55 AM 35.6 °F 30.2 °F 81% 29.97 in 10.0 mi North - - N/A   Clear
5:15 AM 35.6 °F 30.2 °F 81% 29.97 in 10.0 mi North - - N/A   Clear
5:35 AM 37.4 °F 30.2 °F 75% 29.96 in 10.0 mi North - - N/A   Clear
5:55 AM 35.6 °F 30.2 °F 81% 29.96 in 10.0 mi North - - N/A   Clear
6:15 AM 35.6 °F 30.2 °F 81% 29.95 in 10.0 mi North - - N/A   Clear
6:35 AM 35.6 °F 30.2 °F 81% 29.94 in 10.0 mi North - - N/A   Clear
6:55 AM 35.6 °F 30.2 °F 81% 29.94 in 10.0 mi North - - N/A   Clear
7:15 AM 35.6 °F 30.2 °F 81% 29.94 in 10.0 mi North - - N/A   Clear
7:35 AM 35.6 °F 30.2 °F 81% 29.94 in 10.0 mi North - - N/A   Clear
7:55 AM 37.4 °F 32.0 °F 81% 29.94 in 10.0 mi North - - N/A   Clear
8:15 AM 37.4 °F 32.0 °F 81% 29.94 in 10.0 mi North - - N/A   Clear
8:35 AM 39.2 °F 32.0 °F 75% 29.94 in 10.0 mi North - - N/A   Clear
8:55 AM 41.0 °F 32.0 °F 70% 29.93 in 10.0 mi North - - N/A   Clear
9:15 AM 42.8 °F 32.0 °F 66% 29.93 in 10.0 mi North - - N/A   Clear
9:35 AM 42.8 °F 32.0 °F 66% 29.93 in 10.0 mi North - - N/A   Clear
9:55 AM 44.6 °F 32.0 °F 61% 29.94 in 10.0 mi North - - N/A   Clear
10:15 AM 46.4 °F 32.0 °F 57% 29.93 in 10.0 mi North - - N/A   Clear
10:35 AM 48.2 °F 33.8 °F 58% 29.93 in 10.0 mi North - - N/A   Clear
10:55 AM 50.0 °F 33.8 °F 54% 29.92 in 10.0 mi North - - N/A   Clear
11:15 AM 51.8 °F 35.6 °F 54% 29.92 in 10.0 mi North - - N/A   Clear
11:35 AM 51.8 °F 35.6 °F 54% 29.90 in 10.0 mi North - - N/A   Clear
11:55 AM 53.6 °F 37.4 °F 54% 29.90 in 10.0 mi North - - N/A   Clear
12:15 PM 55.4 °F 37.4 °F 51% 29.90 in 10.0 mi North - - N/A   Clear
12:35 PM 59.0 °F 39.2 °F 48% 29.89 in 10.0 mi North - - N/A   Clear
12:55 PM 59.0 °F 37.4 °F 45% 29.88 in 10.0 mi North - - N/A   Clear
1:15 PM 60.8 °F 37.4 °F 42% 29.87 in 10.0 mi North - - N/A   Clear
1:35 PM 62.6 °F 37.4 °F 39% 29.87 in 10.0 mi North - - N/A   Clear
1:55 PM 62.6 °F 37.4 °F 39% 29.86 in 10.0 mi North - - N/A   Clear
2:15 PM 62.6 °F 37.4 °F 39% 29.85 in 10.0 mi North - - N/A   Clear
2:35 PM 62.6 °F 37.4 °F 39% 29.84 in 10.0 mi North - - N/A   Clear
2:55 PM 62.6 °F 37.4 °F 39% 29.83 in 10.0 mi North - - N/A   Clear
3:15 PM 64.4 °F 35.6 °F 34% 29.82 in 10.0 mi North - - N/A   Clear
3:35 PM 64.4 °F 35.6 °F 34% 29.82 in 10.0 mi North - - N/A   Clear
3:55 PM 64.4 °F 37.4 °F 37% 29.81 in 10.0 mi North - - N/A   Clear
4:15 PM 66.2 °F 37.4 °F 35% 29.80 in 10.0 mi North - - N/A   Clear
4:35 PM 62.6 °F 37.4 °F 39% 29.79 in 10.0 mi North - - N/A   Clear
4:55 PM 62.6 °F 37.4 °F 39% 29.79 in 10.0 mi North - - N/A   Clear
5:15 PM 62.6 °F 41.0 °F 45% 29.79 in 10.0 mi North - - N/A   Clear
5:35 PM 62.6 °F 39.2 °F 42% 29.78 in 10.0 mi North - - N/A   Clear
5:55 PM 62.6 °F 41.0 °F 45% 29.79 in 10.0 mi North - - N/A   Clear
6:15 PM 60.8 °F 39.2 °F 45% 29.79 in 10.0 mi North - - N/A   Clear
6:35 PM 59.0 °F 39.2 °F 48% 29.78 in 10.0 mi North - - N/A   Clear
6:55 PM 59.0 °F 39.2 °F 48% 29.77 in 10.0 mi North - - N/A   Clear
7:15 PM 55.4 °F 41.0 °F 58% 29.77 in 10.0 mi North - - N/A   Clear
7:35 PM 55.4 °F 39.2 °F 54% 29.77 in 10.0 mi North - - N/A   Clear
7:55 PM 55.4 °F 39.2 °F 54% 29.77 in 10.0 mi North - - N/A   Clear
8:15 PM 53.6 °F 37.4 °F 54% 29.77 in 10.0 mi North - - N/A   Clear
8:35 PM 53.6 °F 37.4 °F 54% 29.77 in 10.0 mi North - - N/A   Clear
8:55 PM 51.8 °F 35.6 °F 54% 29.77 in 10.0 mi North - - N/A   Clear
9:15 PM 51.8 °F 35.6 °F 54% 29.77 in 10.0 mi North - - N/A   Clear
9:35 PM 51.8 °F 35.6 °F 54% 29.77 in 10.0 mi North - - N/A   Clear
9:55 PM 50.0 °F 35.6 °F 58% 29.77 in 10.0 mi North - - N/A   Clear
10:15 PM 50.0 °F 35.6 °F 58% 29.77 in 10.0 mi North - - N/A   Clear
10:35 PM 50.0 °F 35.6 °F 58% 29.76 in 10.0 mi North - - N/A   Clear
10:55 PM 50.0 °F 33.8 °F 54% 29.76 in 10.0 mi North - - N/A   Clear
11:15 PM 48.2 °F 33.8 °F 58% 29.76 in 10.0 mi North - - N/A   Clear
11:35 PM 48.2 °F 33.8 °F 58% 29.76 in 10.0 mi North - - N/A   Clear
11:55 PM 46.4 °F 33.8 °F 62% 29.75 in 10.0 mi North - - N/A   Clear